Location: Caltech
(34.1382°N, 118.1253°W)
Time: 00:01:11
(UTC-07:00)

SEDSat Delta rocket - Visible Passes

Search period start: 01 October 2016 00:00
Search period end: 11 October 2016 00:00
Orbit: 533 x 1003 km, 31.4° (Epoch: 30 September)

Date Brightness Start Highest point End Pass type
(mag) Time Alt. Az. Time Alt. Az. Time Alt. Az.
01 Oct 4.4 19:51:41 10° W 19:58:01 54° SSW 20:01:54 25° SE visible
01 Oct 5.8 21:38:48 10° W 21:42:02 22° SW 21:42:02 22° SW visible
02 Oct 4.4 19:11:16 10° W 19:17:27 58° SSW 19:23:53 11° ESE visible
02 Oct 5.2 20:58:08 10° W 21:03:44 29° SSW 21:04:01 29° SSW visible
03 Oct 5.2 20:17:34 10° W 20:23:14 32° SSW 20:26:05 24° SSE visible
04 Oct 5.1 19:37:05 10° W 19:42:44 36° SSW 19:48:13 12° SE visible
04 Oct 6.2 21:25:49 10° WSW 21:28:23 13° SW 21:28:23 13° SW visible
05 Oct 5.0 18:56:41 10° W 19:02:15 39° SSW 19:08:20 10° SE visible
05 Oct 6.1 20:44:43 10° WSW 20:48:17 15° SSW 20:50:38 13° S visible
06 Oct 6.1 20:03:52 10° WSW 20:07:50 17° SSW 20:12:00 10° S visible
07 Oct 6.0 19:23:13 10° WSW 19:27:25 19° SSW 19:31:53 10° SSE visible
08 Oct 5.9 18:42:42 10° WSW 18:47:00 21° SSW 18:51:39 10° SSE visible
